HYLAS 1

Last updated on Thu Aug 13 2026 00:02:58 GMT+0000 (Coordinated Universal Time)

1 37237U 10065A 26224.51480789 -.00000150 00000+0 00000+0 0 9997 2 37237 5.7816 72.3065 0002345 147.4030 357.2588 1.00651255 7456
UTC large
Height (km)
Speed (km/s)
/
Latitude / Longitude
Inclination (degrees)
Orbital Period (minutes)
Azimuth
Elevation
Range (km)
Doppler Factor

Next 0 passes for location: London (51.5072 / 0.1276)

No passes found over London.
HYLAS 1